Location: Wheeling
(40.0640°N, 80.7210°W)
Time: 13:43:07
(UTC-05:00)

CUTE 1.7 + AOD 2 - Pass Details

Date: 28 October 2021
Orbit: 592 x 610 km, 97.6° (Epoch: 30 November)

Event Time Altitude Azimuth Distance (km) Brightness Sun altitude
Rises 04:44:09 0° 26° (NNE) 2,880 ? -35.6°
Reaches altitude 10° 04:46:43 10° 41° (NE) 1,968 ? -35.1°
Enters shadow 04:49:00 21° 70° (ENE) 1,391 ? -34.6°
